Home > Weather > Miramichi > Past weeks

Flag for Canada Weather for the Past 2 Weeks in Miramichi, New Brunswick, Canada

Now
37 °F

Low clouds.


Feels Like: 37 °F
Forecast: 37 / 52 °F
Wind: 2 mph from North

Location: Bathurst Airport

Current Time: May 4, 2016 at 5:45:02 AM

Latest Report: May 4, 2016 at 5:00 AM


Visibility: 10 mi

Pressure: 29.94 "Hg

Humidity: 93%

Dew Point: 36 °F

Location of MiramichiLocation

Historic Weather in Miramichi — Graph

°F

Miramichi Temperature Yesterday

Maximum temperature yesterday: 41 °F (at 12:00 AM)
Minimum temperature yesterday: 37 °F (at 4:48 AM)
Average temperature yesterday: 39 °F

High & Low Weather Summary for the Past Weeks

 TemperatureHumidityPressure
High70 °F (Apr 21, 5:00 PM)100% (Apr 23, 7:00 AM)30.30 "Hg (Apr 23, 7:00 AM)
Low21 °F (Apr 26, 6:00 AM)14% (Apr 29, 5:00 PM)29.73 "Hg (Apr 26, 6:00 PM)
Average39 °F54%29.97 "Hg
* Reported Apr 19 4:00 AM — May 4 4:00 AM, Miramichi, Weather by CustomWeather, © 2016

Note: Actual official high and low records may vary slightly from our data, if they occured in-between our weather recording intervals... More about our weather records

Advertising

Miramichi Weather History for the Previous 24 Hours

Scroll right to see more
 ConditionsComfort  
Time TempWeatherWind HumidityBarometerVisibility
4:00 AM
Wed, May 4
37 °FLow clouds.No wind100%29.93 "Hg10 mi
3:00 AM37 °FOvercast.3 mph100%29.93 "Hg10 mi
2:00 AM37 °FLow clouds.2 mph100%29.94 "Hg12 mi
1:00 AM37 °FLow clouds.2 mph100%29.95 "Hg8 mi
12:00 AM37 °FDrizzle. Mostly cloudy.No wind100%29.96 "Hg8 mi
11:00 PM
Tue, May 3
37 °FDrizzle. Low clouds.3 mph93%29.96 "Hg10 mi
10:00 PM37 °FDrizzle. Low clouds.7 mph93%29.96 "Hg8 mi
9:51 PM37 °FDrizzle. Low clouds.6 mph93%29.96 "Hg8 mi
9:00 PM37 °FMostly cloudy.8 mph93%29.96 "Hg10 mi
8:00 PM37 °FMostly cloudy.8 mph93%29.95 "Hg15 mi
7:00 PM37 °FLight rain. Fog.13 mph100%29.94 "Hg5 mi
6:00 PM39 °FLight rain. Fog.9 mph93%29.93 "Hg1 mi
5:00 PM39 °FLight rain. Fog.9 mph93%29.93 "Hg3 mi
4:00 PM39 °FLight rain. Fog.7 mph93%29.93 "Hg3 mi
3:00 PM39 °FLight rain. Fog.9 mph93%29.93 "Hg3 mi
2:00 PM39 °FLight rain. Fog.7 mph93%29.93 "Hg5 mi
1:00 PM39 °FLight rain. Fog.10 mph93%29.95 "Hg3 mi
12:00 PM41 °FLight rain. Fog.8 mph93%29.95 "Hg3 mi
11:00 AM39 °FLight rain. Fog.8 mph93%29.95 "Hg4 mi
10:00 AM39 °FLight rain. Fog.9 mph93%29.94 "Hg4 mi
9:00 AM39 °FLight rain. Fog.13 mph93%29.95 "Hg5 mi
8:00 AM39 °FLight rain. Fog.7 mph93%29.95 "Hg5 mi
7:00 AM37 °FLight rain. Mostly cloudy.5 mph100%29.97 "Hg8 mi
6:00 AM37 °FLight rain. Mostly cloudy.7 mph93%29.98 "Hg12 mi
5:00 AM37 °FLight rain. Low clouds.6 mph93%29.98 "Hg10 mi
Weather by CustomWeather, © 2016

See weather overviewHow to use our weather pages